Weather in Chontaul

Russia / Republic of Dagestan     43°18′13″N   46°51′34″E
temp.,
°C
wind,
m/s
gust,
m/s
humid.,
%
clouds,
%
prec.,
mm/h
press.,
hPa
HPBL,
m
5 march, fri
fri500:00+2ese01750 0.0 102322
03:00+1sw00790 0.0 102222
06:000n00790 0.0 102022
09:00+5ene21610 0.0 1019249
12:00+9ene22450 0.0 1018730
15:00+11e32410 0.0 1017894
18:00+7e35720 0.0 1019126
21:00+6ese12750 0.0 102131
6 march, sat
sat600:00+5ese22740 0.0 102027
03:00+4ese12700 0.0 102022
06:00+3sse01650 0.0 102022
09:00+8ne22476 0.0 1019163
12:00+14e342713 0.0 1016526
15:00+16e55307 0.0 1014520
18:00+10ese475326 0.0 1014114
21:00+9ese235847 0.0 101358
7 march, sun
sun700:00+8w225869 0.0 101124
03:00+9w8154384 0.0 1012506
06:00+6nw101476100 0.1 1017985
09:00+2wnw91387100 1.6 1021997
12:00+5wnw101346100 0.2 10211789
15:00+5nw8103497 0.2 10221514
18:00+2nw364049 0.0 1023237
21:00+1ene015047 0.0 102423
8 march, mon
mon800:000e335417 0.0 102365
03:00−1ese23579 0.0 102432
06:00−1ese11646 0.0 102321
09:00+3e23463 0.0 1022507
12:00+7e56450 0.0 10201338
15:00+7ese88460 0.0 10171150
18:00+4e5863100 0.0 1017394
21:00+3ese2373100 0.0 1018123
9 march, tue
tue900:00+3nw1278100 0.0 101786
03:00+2wnw3481100 0.0 1017213
06:00−1ssw11874 0.0 101821
09:00+4e33662 0.0 1017502
12:00+7e55542 0.0 1015967
15:00+8e67571 0.0 1014832
18:00+5e587051 0.0 1015296
21:00+3e128035 0.0 101645